Location: Newark
(41.0000°N, 28.9500°W)
Time: 12:37:33
(UTC+00:00)

N. Korean satellite - Pass Details

Date: 02 February 2020
Orbit: 456 x 505 km, 97.2° (Epoch: 24 February)

Event Time Altitude Azimuth Distance (km) Brightness Sun altitude
Rises 08:34:36 0° 356° (N) 2,570 10.0 -6.4°
Reaches altitude 10° 08:37:01 10° 340° (NNW) 1,693 9.0 -6.0°
Maximum altitude 08:39:47 21° 291° (WNW) 1,171 7.9 -5.5°
Drops below altitude 10° 08:42:33 10° 241° (WSW) 1,700 8.9 -5.0°
Sets 08:45:00 0° 225° (SW) 2,585 10.0 -4.6°
